Location: ??????
(36.0418°N, 43.6351°E)
Time: 21:30:16
(UTC+00:00)

SJ-7 - Pass Details

Date: 07 March 2021
Orbit: 556 x 601 km, 97.7° (Epoch: 18 April)

Event Time Altitude Azimuth Distance (km) Brightness Sun altitude
Rises 02:46:58 0° 11° (NNE) 2,752 8.0 -9.0°
Reaches altitude 10° 02:49:06 10° 12° (NNE) 1,856 7.2 -8.6°
Maximum altitude 02:53:07 90° 266° (W) 570 4.4 -7.8°
Drops below altitude 10° 02:57:09 10° 193° (SSW) 1,865 6.9 -7.0°
Sets 02:59:18 0° 193° (SSW) 2,765 7.8 -6.5°
